[[{"header":{"parameterUnit":"m.s-1","parameterCategory":1,"la1":30.2991,"la2":30.254,"lo1":-89.0895,"lo2":-89.0444,"dy":0.0017,"dx":0.0017,"nx":28,"ny":28,"refTime":"2024-05-30T21:00:00:Z","depth":0,"parameterNumber":2,"parameterNumberName":"U-component_of_WINDS"},"data":[0,0,0,0,0,0,0,0,0,0,0,0,0,0,0,0,0,0,0,0,0,0,0,0,0,0,0,0,0,0,0,0,0,0,0,0,0,0,0,0,0,0,0,0,0,0,0,0,0,0,0,0,0,0,0,0,0,0,-1.3816,-1.3816,0,-1.3887,-1.3888,-1.3889,-1.3886,-1.3885,-1.3884,-1.3884,-1.3959,-1.3961,-1.3964,0,0,0,0,0,0,0,0,0,0,0,0,0,-1.368,-1.3682,-1.3815,-1.3816,-1.3817,-1.3887,-1.3888,-1.3889,-1.3887,-1.3885,-1.3884,-1.3883,-1.3958,-1.3961,-1.3965,0,0,0,0,0,0,0,0,0,0,0,0,0,-1.3744,-1.3683,-1.3815,-1.3824,-1.3826,-1.3887,-1.3888,-1.3889,-1.3887,-1.3885,-1.3884,-1.3882,-1.3956,-1.3961,-1.3965,-1.4022,0,0,-1.3978,-1.398,0,0,0,0,0,0,0,0,-1.374,-1.3749,-1.3822,-1.3824,-1.3826,-1.3876,-1.3868,-1.3934,-1.3887,-1.3864,-1.3883,-1.3882,-1.3933,-1.3939,-1.3956,-1.4026,-1.4029,-1.3979,-1.3982,-1.3983,-1.3985,0,0,0,0,0,0,0,-1.3736,-1.3746,-1.3844,-1.3823,-1.3825,-1.3826,-1.3833,-1.388,-1.3906,-1.3866,-1.3866,-1.3874,-1.3933,-1.3951,-1.3957,-1.403,-1.3979,-1.3983,-1.3985,-1.3987,-1.4153,-1.4155,0,0,0,0,0,0,-1.3729,-1.3742,-1.3842,-1.3846,-1.3778,-1.383,-1.3838,-1.3862,-1.3905,-1.391,-1.3875,-1.3874,-1.3945,-1.3952,-1.396,-1.4031,-1.3983,-1.3987,-1.399,-1.4151,-1.4154,-1.4156,0,0,0,0,0,0,-1.3726,-1.3738,-1.3839,-1.3794,-1.3807,-1.3834,-1.386,-1.3864,-1.3882,-1.3912,-1.3917,-1.3889,-1.3944,-1.3954,-1.4007,-1.4034,-1.3989,-1.3993,-1.4149,-1.4152,-1.4155,-1.4173,0,0,0,0,0,0,-1.3722,-1.3737,-1.3758,-1.3795,-1.3809,-1.3884,-1.3862,-1.3866,-1.3889,-1.3888,-1.3927,-1.3932,-1.3943,-1.4001,-1.4012,-1.4039,-1.3997,-1.4147,-1.4151,-1.4154,-1.417,-1.4176,-1.4181,0,0,0,0,0,-1.3717,-1.376,-1.3759,-1.3771,-1.3836,-1.3885,-1.3894,-1.3906,-1.3891,-1.3914,-1.3934,-1.393,-1.4029,-1.4006,-1.4018,-1.4048,-1.4145,-1.415,-1.4153,-1.4168,-1.4175,-1.4181,0,0,0,0,0,0,-1.3726,-1.3765,-1.3764,-1.382,-1.3849,-1.3885,-1.3913,-1.3913,-1.3947,-1.3945,-1.3959,-1.3968,-1.4022,-1.404,-1.4014,-1.4106,-1.4086,-1.4092,-1.4092,-1.41,-1.4105,-1.41,-1.4001,0,0,0,0,0,-1.3734,-1.377,-1.3803,-1.3849,-1.3864,-1.3886,-1.3908,-1.3915,-1.3946,-1.3959,-1.3982,-1.4013,-1.4052,-1.4077,-1.4113,-1.4173,-1.4183,-1.42,-1.4205,-1.4209,-1.4215,-1.425,-1.4259,-1.4169,-1.4169,-1.4169,0,0,-1.3752,-1.3778,-1.38,-1.3852,-1.3875,-1.3913,-1.3896,-1.3937,-1.3966,-1.3965,-1.4017,-1.4036,-1.4072,-1.4129,-1.4156,-1.4146,-1.4242,-1.4214,-1.4218,-1.4221,-1.4255,-1.4264,-1.4271,-1.4171,-1.4171,-1.417,0,0,-1.3804,-1.3827,-1.3869,-1.3893,-1.3929,-1.3944,-1.3954,-1.399,-1.4002,-1.4055,-1.4056,-1.4091,-1.4155,-1.4182,-1.4203,-1.4268,-1.4267,-1.4279,-1.4308,-1.4342,-1.4349,-1.4355,-1.438,-1.4388,-1.4285,-1.4285,-1.4285,0,-1.3822,-1.3878,-1.389,-1.3931,-1.3955,-1.3956,-1.4,-1.4023,-1.4069,-1.4086,-1.4075,-1.4158,-1.4182,-1.4246,-1.4262,-1.4279,-1.4293,-1.4275,-1.4347,-1.4353,-1.4359,-1.4383,-1.4392,-1.4286,-1.4286,-1.4286,-1.4286,0,-1.3899,-1.3939,-1.3968,-1.4013,-1.404,-1.4082,-1.4102,-1.4128,-1.4133,-1.415,-1.4204,-1.4233,-1.4277,-1.4293,-1.4298,-1.4359,-1.4352,-1.4343,-1.4323,-1.4369,-1.4392,-1.44,-1.4288,-1.4288,-1.4287,-1.4287,0,0,-1.3958,-1.401,-1.4021,-1.4042,-1.4083,-1.4114,-1.4157,-1.42,-1.4223,-1.4255,-1.4293,-1.4349,-1.4342,-1.4366,-1.4375,-1.4405,-1.4456,-1.4393,-1.4394,-1.4405,-1.4527,-1.4533,-1.4543,-1.4455,-1.4457,-1.4458,-1.4524,0,-1.4015,-1.4091,-1.4104,-1.4171,-1.4208,-1.4211,-1.4249,-1.4279,-1.4296,-1.4331,-1.435,-1.439,-1.4377,-1.4392,-1.4422,-1.4443,-1.4481,-1.4439,-1.4492,-1.4493,-1.4483,-1.4555,-1.4562,-1.4622,-1.4533,-1.4534,-1.4535,0,-1.4092,-1.4127,-1.4197,-1.4235,-1.4251,-1.4285,-1.4326,-1.4359,-1.4394,-1.4404,-1.4433,-1.4438,-1.4485,-1.4462,-1.4527,-1.4498,-1.4521,-1.4535,-1.4538,-1.4544,-1.4517,-1.4564,-1.4642,-1.4651,-1.4549,-1.4548,-1.4547,0,-1.413,-1.4194,-1.4245,-1.4263,-1.4307,-1.4331,-1.4351,-1.4384,-1.441,-1.4446,-1.4463,-1.4504,-1.4527,-1.4559,-1.4576,-1.4558,-1.4641,-1.4619,-1.4652,-1.4652,-1.467,-1.4669,-1.4753,-1.4683,-1.4683,-1.4683,-1.4682,0,-1.4193,-1.4236,-1.4263,-1.4294,-1.4344,-1.4359,-1.4408,-1.4427,-1.4457,-1.4493,-1.4498,-1.4532,-1.4552,-1.459,-1.4604,-1.4657,-1.4667,-1.4677,-1.4681,-1.4678,-1.4676,-1.4693,-1.469,-1.4685,-1.4684,-1.4684,-1.4684,0,-1.4243,-1.4262,-1.4318,-1.4356,-1.4367,-1.4402,-1.4435,-1.4467,-1.4484,-1.453,-1.4542,-1.4569,-1.4614,-1.4634,-1.4689,-1.4699,-1.476,-1.4759,-1.4748,-1.4749,-1.4782,-1.4779,-1.4881,-1.4896,-1.4814,-1.4815,-1.4816,0,-1.4282,-1.4316,-1.4358,-1.4382,-1.4403,-1.4442,-1.4468,-1.4485,-1.4512,-1.4556,-1.4582,-1.4627,-1.4664,-1.4736,-1.4761,-1.4804,-1.4806,-1.4839,-1.4812,-1.4809,-1.4808,-1.4806,-1.481,-1.4844,-1.4844,-1.4845,-1.4845,0,-1.4351,-1.4359,-1.4396,-1.4437,-1.4469,-1.4502,-1.4534,-1.4555,-1.4577,-1.4607,-1.4653,-1.4682,-1.4739,-1.4784,-1.4829,-1.485,-1.4853,-1.4854,-1.4864,-1.4861,-1.4854,-1.486,-1.4762,-1.4851,-1.4851,-1.485,-1.485,-1.485,-1.4398,-1.4429,-1.4463,-1.4505,-1.4532,-1.4562,-1.4594,-1.4616,-1.4654,-1.4702,-1.4709,-1.4759,-1.4795,-1.4855,-1.4878,-1.4918,-1.491,-1.4925,-1.4928,-1.4932,-1.4935,-1.4847,-1.4926,-1.4926,-1.4926,-1.4926,-1.4926,0,-1.4468,-1.4491,-1.4529,-1.4575,-1.4608,-1.4607,-1.4643,-1.4672,-1.4715,-1.4748,-1.4784,-1.4838,-1.4882,-1.4912,-1.4957,-1.4983,-1.4985,-1.4994,-1.4993,-1.4999,-1.4938,-1.4926,-1.4992,-1.4992,-1.4992,-1.4992,-1.4992,-1.4992,-1.4509,-1.4561,-1.4574,-1.464,-1.4663,-1.4711,-1.4732,-1.4761,-1.4788,-1.4847,-1.4884,-1.4903,-1.4935,-1.4983,-1.5024,-1.5032,-1.5049,-1.5059,-1.5066,-1.5009,-1.5002,-1.4996,-1.4984,-1.5062,-1.5062,-1.5123,-1.5124,-1.5124]},{"header":{"parameterUnit":"m.s-1","parameterCategory":1,"la1":30.2991,"la2":30.254,"lo1":-89.0895,"lo2":-89.0444,"dy":0.0017,"dx":0.0017,"nx":28,"ny":28,"refTime":"2024-05-30T21:00:00:Z","depth":0,"parameterNumber":3,"parameterNumberName":"V-component_of_WINDS"},"data":[0,0,0,0,0,0,0,0,0,0,0,0,0,0,0,0,0,0,0,0,0,0,0,0,0,0,0,0,0,0,0,0,0,0,0,0,0,0,0,0,0,0,0,0,0,0,0,0,0,0,0,0,0,0,0,0,0,0,6.2616,6.2616,0,6.2631,6.2632,6.2632,6.2591,6.259,6.2589,6.2587,6.2602,6.2603,6.2605,0,0,0,0,0,0,0,0,0,0,0,0,0,6.2548,6.255,6.2616,6.2616,6.2616,6.2631,6.2632,6.2632,6.2591,6.259,6.2588,6.2587,6.2601,6.2603,6.2605,0,0,0,0,0,0,0,0,0,0,0,0,0,6.2572,6.255,6.2616,6.2598,6.2597,6.2631,6.2632,6.2632,6.2592,6.259,6.2588,6.2586,6.2601,6.2603,6.2605,6.2657,0,0,6.2612,6.2613,0,0,0,0,0,0,0,0,6.2571,6.2575,6.2601,6.2599,6.2598,6.2607,6.2613,6.264,6.2592,6.2594,6.2587,6.2585,6.2605,6.2607,6.2614,6.2658,6.2659,6.2612,6.2614,6.2615,6.2615,0,0,0,0,0,0,0,6.2569,6.2574,6.2622,6.2601,6.2599,6.2588,6.259,6.2618,6.261,6.2593,6.259,6.2593,6.2604,6.2612,6.2614,6.2659,6.2612,6.2614,6.2616,6.2617,6.2743,6.2745,0,0,0,0,0,0,6.257,6.2573,6.2621,6.2622,6.258,6.2591,6.2592,6.2606,6.2609,6.2608,6.2594,6.2591,6.2609,6.2611,6.2614,6.2673,6.2615,6.2617,6.2618,6.2741,6.2744,6.2746,0,0,0,0,0,0,6.2569,6.2575,6.2621,6.2597,6.2602,6.2594,6.261,6.2608,6.2615,6.261,6.2608,6.2604,6.2607,6.2611,6.2646,6.2673,6.2618,6.262,6.2739,6.2742,6.2745,6.2792,0,0,0,0,0,0,6.2567,6.2575,6.2595,6.2598,6.2603,6.2654,6.2612,6.2609,6.262,6.2615,6.2619,6.2617,6.2606,6.2643,6.2649,6.2675,6.2622,6.2736,6.274,6.2744,6.2788,6.2796,6.2803,0,0,0,0,0,6.2565,6.2609,6.2597,6.2603,6.2629,6.2655,6.2658,6.2645,6.2622,6.2642,6.2638,6.2617,6.267,6.2647,6.2653,6.268,6.2735,6.2739,6.2743,6.2785,6.2795,6.2803,0,0,0,0,0,0,6.261,6.2609,6.2595,6.2641,6.2649,6.2648,6.2673,6.2656,6.267,6.2665,6.2648,6.2649,6.2687,6.2688,6.2662,6.273,6.2698,6.2704,6.2727,6.2737,6.2744,6.2742,6.2624,0,0,0,0,0,6.2625,6.2647,6.2645,6.2685,6.269,6.2681,6.2692,6.2681,6.2688,6.269,6.2689,6.2696,6.2714,6.2726,6.2742,6.2789,6.2787,6.281,6.2818,6.2824,6.2829,6.2851,6.286,6.276,6.276,6.276,0,0,6.2657,6.2659,6.2674,6.2694,6.2699,6.2721,6.2684,6.2709,6.2725,6.2694,6.2726,6.2726,6.2733,6.2773,6.2791,6.2775,6.2856,6.283,6.2835,6.2836,6.2856,6.2865,6.2874,6.2763,6.2763,6.2762,0,0,6.2724,6.273,6.2762,6.2767,6.2774,6.2768,6.2776,6.2778,6.2776,6.2809,6.2785,6.2804,6.2835,6.284,6.2846,6.2914,6.2894,6.292,6.2959,6.298,6.2988,6.2995,6.3016,6.3025,6.2925,6.2925,6.2925,0,6.2762,6.2795,6.2781,6.2807,6.2816,6.279,6.2821,6.2827,6.2839,6.2845,6.2827,6.2864,6.2867,6.2906,6.2923,6.293,6.2937,6.2919,6.2989,6.2995,6.3001,6.3021,6.303,6.2928,6.2928,6.2928,6.2927,0,6.284,6.2863,6.2888,6.29,6.2911,6.2941,6.293,6.2943,6.2931,6.2926,6.2958,6.296,6.2975,6.2984,6.2973,6.3022,6.3011,6.2992,6.2959,6.3014,6.3032,6.304,6.2932,6.2931,6.293,6.293,0,0,6.2936,6.2938,6.2947,6.2951,6.2956,6.2973,6.3,6.3015,6.3025,6.3035,6.3055,6.3082,6.3063,6.307,6.3059,6.3079,6.3129,6.3056,6.3056,6.3067,6.3179,6.3192,6.3201,6.3117,6.3118,6.312,6.3178,0,6.3,6.3046,6.3034,6.3079,6.3098,6.3073,6.3096,6.3101,6.3097,6.3113,6.3108,6.3126,6.3102,6.3105,6.3124,6.3119,6.315,6.3115,6.3134,6.3134,6.313,6.3211,6.3225,6.328,6.3185,6.3186,6.3187,0,6.3081,6.3092,6.314,6.3139,6.3147,6.3168,6.3179,6.3195,6.3199,6.3195,6.3202,6.3187,6.3212,6.3181,6.3214,6.319,6.3197,6.3196,6.3198,6.3197,6.3162,6.3209,6.3297,6.3304,6.3199,6.3198,6.3197,0,6.3142,6.3169,6.32,6.3205,6.3206,6.3221,6.3222,6.3225,6.3234,6.3243,6.3248,6.3261,6.3268,6.3278,6.3265,6.3245,6.3299,6.3268,6.3294,6.3294,6.3305,6.3304,6.3392,6.3314,6.3314,6.3314,6.3314,0,6.3213,6.3243,6.3227,6.3246,6.3277,6.3262,6.3293,6.3292,6.3294,6.3311,6.3291,6.3307,6.3292,6.3306,6.3297,6.3324,6.3328,6.3324,6.332,6.3324,6.3324,6.3326,6.3321,6.3316,6.3316,6.3315,6.3315,0,6.3286,6.3277,6.3309,6.3307,6.3307,6.333,6.3328,6.3344,6.3339,6.3361,6.3365,6.3356,6.3372,6.3361,6.3378,6.3372,6.3406,6.3399,6.3404,6.3401,6.3427,6.3423,6.3517,6.3527,6.3446,6.3447,6.3448,0,6.3331,6.3352,6.3352,6.3362,6.3364,6.3381,6.3389,6.3375,6.3385,6.3391,6.3406,6.342,6.343,6.3457,6.3451,6.3463,6.3454,6.3487,6.3456,6.3458,6.3451,6.3449,6.345,6.3492,6.3493,6.3494,6.3494,0,6.341,6.3404,6.3417,6.3428,6.3438,6.3446,6.3453,6.3462,6.3448,6.3459,6.3475,6.3483,6.3499,6.3512,6.3522,6.3522,6.3505,6.3504,6.351,6.3512,6.3513,6.351,6.3418,6.3501,6.3501,6.35,6.35,6.3499,6.3467,6.3484,6.3486,6.3501,6.3504,6.351,6.3524,6.352,6.3533,6.3545,6.3536,6.3554,6.3557,6.3568,6.357,6.3583,6.357,6.358,6.3581,6.3583,6.3585,6.3514,6.3585,6.3585,6.3585,6.3585,6.3585,0,6.3543,6.3542,6.3556,6.3565,6.3576,6.356,6.3565,6.3575,6.3591,6.3595,6.3605,6.3622,6.3635,6.3631,6.3642,6.3653,6.3645,6.3656,6.3653,6.3653,6.3598,6.359,6.3662,6.3662,6.3662,6.3662,6.3662,6.3662,6.3583,6.3609,6.3603,6.3631,6.363,6.3647,6.3652,6.3656,6.3659,6.3679,6.3689,6.3686,6.3686,6.3697,6.3707,6.3705,6.3709,6.3722,6.3717,6.3665,6.3658,6.365,6.3642,6.3724,6.3724,6.3771,6.3771,6.3772]}]]